| time (UTC) | temp C | wind direction | speed KPH | gust KPH | rain 1hr cm | rain 24hr cm | rain mn cm | humidity % | barometer mb |
| 20260506002056 | 17 | 91 | 0.0 | 0.0 | 0.00 | 0.00 | 0.00 | 59 | 1012.5 |
| 20260506001556 | 17 | 91 | 0.0 | 0.0 | 0.00 | 0.00 | 0.00 | 62 | 1012.3 |
| 20260506001057 | 18 | 91 | 0.0 | 0.0 | 0.00 | 0.00 | 0.00 | 62 | 1012.5 |
| 20260506000555 | 18 | 88 | 0.0 | 0.0 | 0.00 | 0.00 | 0.00 | 59 | 1012.5 |
| 20260506000058 | 17 | 88 | 0.0 | 0.0 | 0.00 | 0.00 | 0.00 | 55 | 1012.5 |
| 20260505235555 | 17 | 88 | 0.0 | 0.0 | 0.00 | 0.00 | 0.00 | 55 | 1012.5 |
| 20260505235055 | 17 | 107 | 0.0 | 0.0 | 0.00 | 0.00 | 0.00 | 58 | 1012.2 |
| 20260505234557 | 17 | 107 | 0.0 | 0.0 | 0.00 | 0.00 | 0.00 | 58 | 1011.9 |
| 20260505234055 | 17 | 107 | 0.0 | 0.0 | 0.00 | 0.00 | 0.00 | 59 | 1011.8 |
| 20260505233554 | 17 | 117 | 0.0 | 1.6 | 0.00 | 0.00 | 0.00 | 62 | 1011.7 |
| 20260505233054 | 17 | 117 | 0.0 | 3.2 | 0.00 | 0.00 | 0.00 | 65 | 1011.7 |
| 20260505232553 | 17 | 96 | 0.0 | 3.2 | 0.00 | 0.00 | 0.00 | 65 | 1011.7 |
| 20260505232058 | 17 | 163 | 0.0 | 3.2 | 0.00 | 0.00 | 0.00 | 60 | 1011.8 |
| 20260505231552 | 18 | 194 | 0.0 | 1.6 | 0.00 | 0.00 | 0.00 | 58 | 1012.0 |
| 20260505231054 | 18 | 194 | 0.0 | 1.6 | 0.00 | 0.00 | 0.00 | 56 | 1012.0 |
| 20260505230551 | 18 | 194 | 0.0 | 1.6 | 0.00 | 0.00 | 0.00 | 52 | 1012.2 |
| 20260505225551 | 18 | 150 | 0.0 | 1.6 | 0.00 | 0.00 | 0.00 | 52 | 1012.1 |
| 20260505225051 | 19 | 150 | 0.0 | 1.6 | 0.00 | 0.00 | 0.00 | 50 | 1012.0 |
| 20260505224551 | 20 | 117 | 0.0 | 0.0 | 0.00 | 0.00 | 0.00 | 46 | 1012.2 |
| 20260505224050 | 20 | 114 | 0.0 | 0.0 | 0.00 | 0.00 | 0.00 | 44 | 1012.4 |
| 20260505223553 | 20 | 114 | 0.0 | 1.6 | 0.00 | 0.00 | 0.00 | 43 | 1012.5 |
| 20260505223059 | 20 | 114 | 0.0 | 1.6 | 0.00 | 0.00 | 0.00 | 42 | 1012.5 |
| 20260505222550 | 20 | 51 | 0.0 | 1.6 | 0.00 | 0.00 | 0.00 | 41 | 1012.7 |
| 20260505222050 | 20 | 211 | 0.0 | 0.0 | 0.00 | 0.00 | 0.00 | 41 | 1012.8 |
| 20260505221549 | 20 | 201 | 0.0 | 4.8 | 0.00 | 0.00 | 0.00 | 40 | 1012.7 |
| 20260505221054 | 20 | 202 | 0.0 | 4.8 | 0.00 | 0.00 | 0.00 | 39 | 1012.7 |
| 20260505220549 | 20 | 264 | 0.0 | 1.6 | 0.00 | 0.00 | 0.00 | 39 | 1012.5 |
| 20260505220049 | 21 | 269 | 0.0 | 1.6 | 0.00 | 0.00 | 0.00 | 39 | 1012.4 |
| 20260505215549 | 21 | 248 | 0.0 | 3.2 | 0.00 | 0.00 | 0.00 | 40 | 1012.5 |
| 20260505215049 | 21 | 200 | 0.0 | 3.2 | 0.00 | 0.00 | 0.00 | 39 | 1012.5 |
| 20260505214549 | 21 | 269 | 1.6 | 3.2 | 0.00 | 0.00 | 0.00 | 38 | 1012.4 |
| 20260505214051 | 21 | 263 | 0.0 | 3.2 | 0.00 | 0.00 | 0.00 | 38 | 1012.3 |
| 20260505213550 | 21 | 236 | 0.0 | 4.8 | 0.00 | 0.00 | 0.00 | 37 | 1012.1 |
| 20260505213056 | 21 | 260 | 0.0 | 4.8 | 0.00 | 0.00 | 0.00 | 38 | 1011.9 |
| 20260505212547 | 21 | 267 | 0.0 | 4.8 | 0.00 | 0.00 | 0.00 | 37 | 1012.0 |
| 20260505212047 | 22 | 258 | 0.0 | 4.8 | 0.00 | 0.00 | 0.00 | 36 | 1012.1 |
| 20260505211549 | 22 | 112 | 0.0 | 3.2 | 0.00 | 0.00 | 0.00 | 36 | 1012.1 |
| 20260505211047 | 22 | 211 | 0.0 | 8.0 | 0.00 | 0.00 | 0.00 | 39 | 1012.1 |
| 20260505210547 | 22 | 200 | 0.0 | 8.0 | 0.00 | 0.00 | 0.00 | 39 | 1012.1 |
| 20260505210047 | 22 | 163 | 0.0 | 3.2 | 0.00 | 0.00 | 0.00 | 38 | 1012.1 |
| 20260505205547 | 22 | 343 | 1.6 | 3.2 | 0.00 | 0.00 | 0.00 | 41 | 1012.0 |
| 20260505205048 | 22 | 201 | 0.0 | 3.2 | 0.00 | 0.00 | 0.00 | 38 | 1012.1 |
| 20260505204546 | 22 | 191 | 0.0 | 3.2 | 0.00 | 0.00 | 0.00 | 41 | 1012.2 |
| 20260505204045 | 22 | 21 | 0.0 | 3.2 | 0.00 | 0.00 | 0.00 | 43 | 1012.2 |
| 20260505203545 | 22 | 205 | 0.0 | 3.2 | 0.00 | 0.00 | 0.00 | 42 | 1012.2 |
| 20260505203051 | 22 | 276 | 0.0 | 12.9 | 0.00 | 0.00 | 0.00 | 41 | 1012.1 |
| 20260505202544 | 22 | 261 | 0.0 | 12.9 | 0.00 | 0.00 | 0.00 | 42 | 1012.0 |
| 20260505202045 | 22 | 100 | 0.0 | 3.2 | 0.00 | 0.00 | 0.00 | 41 | 1012.0 |
| 20260505201544 | 22 | 67 | 0.0 | 3.2 | 0.00 | 0.00 | 0.00 | 40 | 1012.0 |
| 20260505201042 | 22 | 252 | 0.0 | 4.8 | 0.00 | 0.00 | 0.00 | 39 | 1012.3 |
| 20260505200542 | 22 | 265 | 1.6 | 4.8 | 0.00 | 0.00 | 0.00 | 39 | 1012.4 |
| 20260505200041 | 22 | 263 | 0.0 | 4.8 | 0.00 | 0.00 | 0.00 | 38 | 1012.5 |
| 20260505195544 | 22 | 207 | 0.0 | 4.8 | 0.00 | 0.00 | 0.00 | 37 | 1012.5 |
| 20260505195040 | 22 | 248 | 1.6 | 4.8 | 0.00 | 0.00 | 0.00 | 36 | 1012.4 |
| 20260505194545 | 22 | 197 | 0.0 | 4.8 | 0.00 | 0.00 | 0.00 | 39 | 1012.5 |
| 20260505194039 | 22 | 236 | 0.0 | 4.8 | 0.00 | 0.00 | 0.00 | 40 | 1012.6 |
| 20260505193538 | 22 | 243 | 0.0 | 4.8 | 0.00 | 0.00 | 0.00 | 42 | 1012.7 |
| 20260505193039 | 22 | 280 | 0.0 | 3.2 | 0.00 | 0.00 | 0.00 | 43 | 1012.7 |
| 20260505192536 | 21 | 229 | 0.0 | 8.0 | 0.00 | 0.00 | 0.00 | 43 | 1012.8 |
| 20260505192037 | 21 | 327 | 1.6 | 9.7 | 0.00 | 0.00 | 0.00 | 43 | 1012.8 |
| 20260505191535 | 21 | 125 | 1.6 | 8.0 | 0.00 | 0.00 | 0.00 | 43 | 1013.0 |
| 20260505191038 | 22 | 191 | 0.0 | 4.8 | 0.00 | 0.00 | 0.00 | 42 | 1013.2 |
| 20260505190535 | 22 | 119 | 0.0 | 9.7 | 0.00 | 0.00 | 0.00 | 43 | 1013.3 |
| 20260505190032 | 22 | 100 | 3.2 | 9.7 | 0.00 | 0.00 | 0.00 | 42 | 1013.3 |
| 20260505185533 | 22 | 271 | 0.0 | 4.8 | 0.00 | 0.00 | 0.00 | 43 | 1013.4 |
| 20260505185032 | 22 | 284 | 1.6 | 4.8 | 0.00 | 0.00 | 0.00 | 42 | 1013.4 |
| 20260505184531 | 22 | 275 | 0.0 | 4.8 | 0.00 | 0.00 | 0.00 | 41 | 1013.4 |
| 20260505184031 | 22 | 266 | 0.0 | 4.8 | 0.00 | 0.00 | 0.00 | 42 | 1013.5 |
| 20260505183530 | 22 | 250 | 0.0 | 3.2 | 0.00 | 0.00 | 0.00 | 39 | 1013.5 |
| 20260505183030 | 22 | 163 | 0.0 | 3.2 | 0.00 | 0.00 | 0.00 | 39 | 1013.5 |
| 20260505182530 | 22 | 43 | 0.0 | 4.8 | 0.00 | 0.00 | 0.00 | 37 | 1013.6 |
| 20260505182033 | 22 | 275 | 0.0 | 4.8 | 0.00 | 0.00 | 0.00 | 38 | 1013.7 |
| 20260505181527 | 21 | 244 | 0.0 | 6.4 | 0.00 | 0.00 | 0.00 | 39 | 1013.8 |
| 20260505181027 | 21 | 255 | 1.6 | 6.4 | 0.00 | 0.00 | 0.00 | 37 | 1013.9 |
| 20260505180526 | 21 | 277 | 1.6 | 4.8 | 0.00 | 0.00 | 0.00 | 38 | 1013.9 |
| 20260505180026 | 21 | 254 | 0.0 | 3.2 | 0.00 | 0.00 | 0.00 | 39 | 1014.1 |
| 20260505175525 | 21 | 263 | 0.0 | 4.8 | 0.00 | 0.00 | 0.00 | 39 | 1014.1 |
| 20260505175024 | 21 | 271 | 0.0 | 4.8 | 0.00 | 0.00 | 0.00 | 39 | 1014.1 |
| 20260505174524 | 21 | 245 | 1.6 | 12.9 | 0.00 | 0.00 | 0.00 | 39 | 1014.3 |
| 20260505174025 | 21 | 238 | 0.0 | 12.9 | 0.00 | 0.00 | 0.00 | 38 | 1014.3 |
| 20260505173523 | 21 | 259 | 3.2 | 6.4 | 0.00 | 0.00 | 0.00 | 38 | 1014.5 |
| 20260505173037 | 21 | 248 | 1.6 | 6.4 | 0.00 | 0.00 | 0.00 | 37 | 1014.5 |
| 20260505172523 | 21 | 281 | 0.0 | 4.8 | 0.00 | 0.00 | 0.00 | 39 | 1014.6 |
| 20260505172023 | 21 | 285 | 0.0 | 4.8 | 0.00 | 0.00 | 0.00 | 38 | 1014.6 |
| 20260505171523 | 21 | 252 | 0.0 | 6.4 | 0.00 | 0.00 | 0.00 | 39 | 1014.7 |
| 20260505171024 | 21 | 311 | 1.6 | 6.4 | 0.00 | 0.00 | 0.00 | 38 | 1014.6 |
| 20260505170522 | 21 | 240 | 0.0 | 3.2 | 0.00 | 0.00 | 0.00 | 37 | 1014.6 |
| 20260505170026 | 21 | 286 | 0.0 | 4.8 | 0.00 | 0.00 | 0.00 | 39 | 1014.5 |
| 20260505165519 | 20 | 283 | 0.0 | 4.8 | 0.00 | 0.00 | 0.00 | 38 | 1014.6 |
| 20260505165019 | 20 | 286 | 0.0 | 4.8 | 0.00 | 0.00 | 0.00 | 39 | 1014.5 |
| 20260505164540 | 20 | 245 | 0.0 | 3.2 | 0.00 | 0.00 | 0.00 | 37 | 1014.7 |
| 20260505164018 | 20 | 244 | 0.0 | 6.4 | 0.00 | 0.00 | 0.00 | 43 | 1014.9 |
| 20260505163517 | 20 | 258 | 1.6 | 6.4 | 0.00 | 0.00 | 0.00 | 44 | 1014.9 |
| 20260505163017 | 20 | 288 | 3.2 | 6.4 | 0.00 | 0.00 | 0.00 | 45 | 1014.8 |
| 20260505162515 | 20 | 246 | 1.6 | 4.8 | 0.00 | 0.00 | 0.00 | 48 | 1015.0 |
| 20260505162015 | 20 | 281 | 1.6 | 4.8 | 0.00 | 0.00 | 0.00 | 48 | 1015.0 |
| 20260505161514 | 20 | 253 | 0.0 | 3.2 | 0.00 | 0.00 | 0.00 | 48 | 1015.0 |
| 20260505161014 | 19 | 65 | 0.0 | 4.8 | 0.00 | 0.00 | 0.00 | 52 | 1014.9 |
| 20260505160512 | 19 | 65 | 0.0 | 4.8 | 0.00 | 0.00 | 0.00 | 52 | 1014.9 |
| 20260505153011 | 18 | 234 | 0.0 | 8.0 | 0.00 | 0.00 | 0.00 | 49 | 1015.0 |
| 20260505152511 | 18 | 241 | 1.6 | 8.0 | 0.00 | 0.00 | 0.00 | 48 | 1015.1 |
| 20260505152009 | 18 | 256 | 1.6 | 6.4 | 0.00 | 0.00 | 0.00 | 48 | 1015.1 |
| 20260505151511 | 18 | 279 | 1.6 | 6.4 | 0.00 | 0.00 | 0.00 | 48 | 1015.2 |
| 20260505151009 | 18 | 259 | 1.6 | 4.8 | 0.00 | 0.00 | 0.00 | 48 | 1015.3 |
| 20260505150508 | 18 | 254 | 0.0 | 4.8 | 0.00 | 0.00 | 0.00 | 49 | 1015.3 |
| 20260505140504 | 18 | 5 | 0.0 | 0.0 | 0.00 | 0.00 | 0.00 | 55 | 1015.0 |
| 20260505124552 | 14 | 113 | 0.0 | 0.0 | 0.00 | 0.00 | 0.00 | 68 | 1014.4 |
| 20260505124052 | 13 | 113 | 0.0 | 0.0 | 0.00 | 0.00 | 0.00 | 69 | 1014.4 |
| 20260505123551 | 13 | 113 | 0.0 | 0.0 | 0.00 | 0.00 | 0.00 | 65 | 1014.4 |
| 20260505123057 | 13 | 113 | 0.0 | 0.0 | 0.00 | 0.00 | 0.00 | 65 | 1014.4 |
| 20260505122554 | 13 | 113 | 0.0 | 0.0 | 0.00 | 0.00 | 0.00 | 65 | 1014.4 |
| 20260505122050 | 12 | 113 | 0.0 | 0.0 | 0.00 | 0.00 | 0.00 | 66 | 1014.3 |
| 20260505121550 | 12 | 113 | 0.0 | 0.0 | 0.00 | 0.00 | 0.00 | 66 | 1014.3 |
| 20260505121050 | 12 | 113 | 0.0 | 0.0 | 0.00 | 0.00 | 0.00 | 68 | 1014.2 |
| 20260505120550 | 12 | 113 | 0.0 | 0.0 | 0.00 | 0.00 | 0.00 | 68 | 1014.3 |
| 20260505120049 | 12 | 115 | 0.0 | 0.0 | 0.00 | 0.00 | 0.00 | 68 | 1014.3 |
| 20260505115553 | 12 | 115 | 0.0 | 0.0 | 0.00 | 0.00 | 0.00 | 67 | 1014.3 |
| 20260505115049 | 12 | 115 | 0.0 | 0.0 | 0.00 | 0.00 | 0.00 | 67 | 1014.2 |
| 20260505114549 | 12 | 115 | 0.0 | 0.0 | 0.00 | 0.00 | 0.00 | 67 | 1014.2 |
| 20260505114049 | 12 | 116 | 0.0 | 0.0 | 0.00 | 0.00 | 0.00 | 66 | 1014.1 |
| 20260505113551 | 12 | 115 | 0.0 | 0.0 | 0.00 | 0.00 | 0.00 | 67 | 1013.9 |
| 20260505113047 | 12 | 115 | 0.0 | 0.0 | 0.00 | 0.00 | 0.00 | 67 | 1013.9 |
| 20260505112548 | 12 | 114 | 0.0 | 0.0 | 0.00 | 0.00 | 0.00 | 67 | 1013.8 |
| 20260505112048 | 12 | 114 | 0.0 | 3.2 | 0.00 | 0.00 | 0.00 | 67 | 1013.8 |
| 20260505111553 | 12 | 113 | 0.0 | 3.2 | 0.00 | 0.00 | 0.00 | 66 | 1013.8 |
| 20260505111048 | 12 | 115 | 0.0 | 0.0 | 0.00 | 0.00 | 0.00 | 66 | 1013.8 |
| 20260505110547 | 12 | 114 | 0.0 | 0.0 | 0.00 | 0.00 | 0.00 | 67 | 1013.8 |
| 20260505102039 | 13 | 313 | 0.0 | 0.0 | 0.00 | 0.00 | 0.00 | 60 | 1013.6 |
| 20260505101539 | 13 | 314 | 0.0 | 0.0 | 0.00 | 0.00 | 0.00 | 61 | 1013.7 |
| 20260505101042 | 13 | 315 | 0.0 | 0.0 | 0.00 | 0.00 | 0.00 | 61 | 1013.7 |
| 20260505100540 | 13 | 328 | 0.0 | 1.6 | 0.00 | 0.00 | 0.00 | 62 | 1013.7 |
| 20260505100048 | 13 | 328 | 0.0 | 1.6 | 0.00 | 0.00 | 0.00 | 63 | 1013.7 |
| 20260505095541 | 13 | 117 | 0.0 | 0.0 | 0.00 | 0.00 | 0.00 | 64 | 1013.7 |
| 20260505095036 | 13 | 110 | 0.0 | 0.0 | 0.00 | 0.00 | 0.00 | 63 | 1013.7 |
| 20260505094536 | 13 | 105 | 0.0 | 3.2 | 0.00 | 0.00 | 0.00 | 64 | 1013.7 |
| 20260505094034 | 13 | 105 | 0.0 | 3.2 | 0.00 | 0.00 | 0.00 | 61 | 1013.8 |
| 20260505093532 | 14 | 82 | 0.0 | 0.0 | 0.00 | 0.00 | 0.00 | 62 | 1013.9 |
| 20260505093033 | 14 | 74 | 0.0 | 0.0 | 0.00 | 0.00 | 0.00 | 58 | 1013.8 |
| 20260505092532 | 14 | 53 | 0.0 | 0.0 | 0.00 | 0.00 | 0.00 | 59 | 1013.8 |
| 20260505092031 | 14 | 53 | 0.0 | 0.0 | 0.00 | 0.00 | 0.00 | 58 | 1013.8 |
| 20260505091543 | 14 | 53 | 0.0 | 0.0 | 0.00 | 0.00 | 0.00 | 57 | 1013.9 |
| 20260505091030 | 14 | 39 | 0.0 | 0.0 | 0.00 | 0.00 | 0.00 | 58 | 1013.9 |
| 20260505090530 | 14 | 39 | 0.0 | 0.0 | 0.00 | 0.00 | 0.00 | 57 | 1014.0 |
| 20260505090048 | 14 | 55 | 0.0 | 0.0 | 0.00 | 0.00 | 0.00 | 57 | 1014.0 |
| 20260505085532 | 14 | 55 | 0.0 | 0.0 | 0.00 | 0.00 | 0.00 | 58 | 1014.0 |
| 20260505085030 | 14 | 55 | 0.0 | 0.0 | 0.00 | 0.00 | 0.00 | 58 | 1013.9 |
| 20260505084536 | 14 | 55 | 0.0 | 0.0 | 0.00 | 0.00 | 0.00 | 58 | 1014.0 |
| 20260505084029 | 14 | 55 | 0.0 | 0.0 | 0.00 | 0.00 | 0.00 | 58 | 1014.0 |
| 20260505083528 | 14 | 55 | 0.0 | 0.0 | 0.00 | 0.00 | 0.00 | 59 | 1014.0 |
| 20260505083038 | 14 | 55 | 0.0 | 0.0 | 0.00 | 0.00 | 0.00 | 58 | 1014.0 |
| 20260505082528 | 14 | 55 | 0.0 | 0.0 | 0.00 | 0.00 | 0.00 | 58 | 1014.0 |
| 20260505082032 | 14 | 55 | 0.0 | 0.0 | 0.00 | 0.00 | 0.00 | 58 | 1014.1 |
| 20260505081543 | 14 | 55 | 0.0 | 0.0 | 0.00 | 0.00 | 0.00 | 57 | 1014.0 |
| 20260505081027 | 15 | 55 | 0.0 | 0.0 | 0.00 | 0.00 | 0.00 | 57 | 1014.1 |
| 20260505080532 | 15 | 55 | 0.0 | 0.0 | 0.00 | 0.00 | 0.00 | 57 | 1014.1 |
| 20260505080039 | 15 | 55 | 0.0 | 0.0 | 0.00 | 0.00 | 0.00 | 57 | 1014.1 |
| 20260505075527 | 15 | 55 | 0.0 | 0.0 | 0.00 | 0.00 | 0.00 | 57 | 1014.1 |
| 20260505075027 | 14 | 55 | 0.0 | 0.0 | 0.00 | 0.00 | 0.00 | 57 | 1014.2 |
| 20260505074527 | 14 | 55 | 0.0 | 0.0 | 0.00 | 0.00 | 0.00 | 57 | 1014.2 |
| 20260505074027 | 14 | 55 | 0.0 | 0.0 | 0.00 | 0.00 | 0.00 | 57 | 1014.1 |
| 20260505073529 | 15 | 55 | 0.0 | 0.0 | 0.00 | 0.00 | 0.00 | 57 | 1014.1 |
| 20260505073026 | 15 | 55 | 0.0 | 0.0 | 0.00 | 0.00 | 0.00 | 57 | 1014.2 |
| 20260505072525 | 15 | 55 | 0.0 | 0.0 | 0.00 | 0.00 | 0.00 | 56 | 1014.2 |
| 20260505072027 | 15 | 55 | 0.0 | 0.0 | 0.00 | 0.00 | 0.00 | 56 | 1014.2 |
| 20260505071529 | 14 | 55 | 0.0 | 0.0 | 0.00 | 0.00 | 0.00 | 56 | 1014.3 |
| 20260505071025 | 14 | 55 | 0.0 | 0.0 | 0.00 | 0.00 | 0.00 | 56 | 1014.2 |
| 20260505070525 | 14 | 55 | 0.0 | 0.0 | 0.00 | 0.00 | 0.00 | 57 | 1014.2 |
| 20260505070027 | 14 | 55 | 0.0 | 0.0 | 0.00 | 0.00 | 0.00 | 57 | 1014.3 |
| 20260505065524 | 14 | 55 | 0.0 | 0.0 | 0.00 | 0.00 | 0.00 | 57 | 1014.2 |
| 20260505065024 | 14 | 55 | 0.0 | 0.0 | 0.00 | 0.00 | 0.00 | 57 | 1014.1 |
| 20260505064524 | 14 | 55 | 0.0 | 0.0 | 0.00 | 0.00 | 0.00 | 57 | 1014.1 |
| 20260505064026 | 14 | 55 | 0.0 | 0.0 | 0.00 | 0.00 | 0.00 | 57 | 1014.1 |
| 20260505063523 | 15 | 55 | 0.0 | 0.0 | 0.00 | 0.00 | 0.00 | 59 | 1014.1 |
| 20260505063033 | 15 | 55 | 0.0 | 0.0 | 0.00 | 0.00 | 0.00 | 59 | 1014.1 |
| 20260505062522 | 15 | 45 | 0.0 | 1.6 | 0.00 | 0.00 | 0.00 | 59 | 1014.1 |
| 20260505062021 | 15 | 62 | 0.0 | 1.6 | 0.00 | 0.00 | 0.00 | 58 | 1014.1 |
| 20260505061529 | 15 | 300 | 0.0 | 1.6 | 0.00 | 0.00 | 0.00 | 58 | 1014.3 |
| 20260505061021 | 15 | 71 | 0.0 | 3.2 | 0.00 | 0.00 | 0.00 | 58 | 1014.3 |
| 20260505060521 | 15 | 71 | 0.0 | 3.2 | 0.00 | 0.00 | 0.00 | 58 | 1014.4 |
| 20260505060021 | 15 | 109 | 0.0 | 1.6 | 0.00 | 0.00 | 0.00 | 58 | 1014.3 |
| 20260505055520 | 14 | 182 | 0.0 | 1.6 | 0.00 | 0.00 | 0.00 | 59 | 1014.3 |
| 20260505055020 | 14 | 184 | 0.0 | 1.6 | 0.00 | 0.00 | 0.00 | 59 | 1014.4 |
| 20260505054524 | 15 | 200 | 0.0 | 1.6 | 0.00 | 0.00 | 0.00 | 59 | 1014.4 |
| 20260505054020 | 14 | 258 | 0.0 | 1.6 | 0.00 | 0.00 | 0.00 | 59 | 1014.4 |
| 20260505053520 | 14 | 101 | 0.0 | 0.0 | 0.00 | 0.00 | 0.00 | 58 | 1014.4 |
| 20260505053019 | 14 | 101 | 0.0 | 0.0 | 0.00 | 0.00 | 0.00 | 58 | 1014.5 |
| 20260505052518 | 14 | 101 | 0.0 | 3.2 | 0.00 | 0.00 | 0.00 | 60 | 1014.5 |
| 20260505052019 | 14 | 101 | 0.0 | 3.2 | 0.00 | 0.00 | 0.00 | 60 | 1014.5 |
| 20260505051520 | 14 | 109 | 0.0 | 0.0 | 0.00 | 0.00 | 0.00 | 60 | 1014.5 |
| 20260505051019 | 14 | 109 | 0.0 | 3.2 | 0.00 | 0.00 | 0.00 | 59 | 1014.5 |
| 20260505050517 | 14 | 109 | 0.0 | 3.2 | 0.00 | 0.00 | 0.00 | 59 | 1014.4 |
| 20260505041506 | 16 | 200 | 0.0 | 0.0 | 0.00 | 0.00 | 0.00 | 49 | 1014.4 |
| 20260505041005 | 17 | 200 | 0.0 | 1.6 | 0.00 | 0.00 | 0.00 | 49 | 1014.4 |
| 20260505040505 | 17 | 198 | 0.0 | 3.2 | 0.00 | 0.00 | 0.00 | 48 | 1014.4 |
| 20260505040004 | 17 | 156 | 0.0 | 3.2 | 0.00 | 0.00 | 0.00 | 48 | 1014.4 |
| 20260505035503 | 17 | 211 | 0.0 | 1.6 | 0.00 | 0.00 | 0.00 | 47 | 1014.4 |
| 20260505035003 | 17 | 161 | 0.0 | 1.6 | 0.00 | 0.00 | 0.00 | 48 | 1014.4 |
| 20260505034503 | 17 | 199 | 0.0 | 0.0 | 0.00 | 0.00 | 0.00 | 48 | 1014.5 |
| 20260505034003 | 17 | 205 | 0.0 | 0.0 | 0.00 | 0.00 | 0.00 | 50 | 1014.5 |
| 20260505033506 | 17 | 209 | 0.0 | 1.6 | 0.00 | 0.00 | 0.00 | 50 | 1014.5 |
| 20260505033003 | 17 | 200 | 0.0 | 1.6 | 0.00 | 0.00 | 0.00 | 51 | 1014.6 |
| 20260505032503 | 17 | 200 | 0.0 | 1.6 | 0.00 | 0.00 | 0.00 | 52 | 1014.6 |
| 20260505032003 | 16 | 200 | 0.0 | 1.6 | 0.00 | 0.00 | 0.00 | 52 | 1014.6 |
| 20260505031502 | 17 | 233 | 0.0 | 1.6 | 0.00 | 0.00 | 0.00 | 52 | 1014.7 |
| 20260505031002 | 16 | 202 | 0.0 | 1.6 | 0.00 | 0.00 | 0.00 | 53 | 1014.7 |
| 20260505030502 | 17 | 202 | 0.0 | 1.6 | 0.00 | 0.00 | 0.00 | 52 | 1014.7 |
| 20260505030002 | 17 | 202 | 0.0 | 1.6 | 0.00 | 0.00 | 0.00 | 52 | 1014.6 |
| 20260505025502 | 17 | 202 | 0.0 | 1.6 | 0.00 | 0.00 | 0.00 | 51 | 1014.6 |
| 20260505025002 | 17 | 202 | 0.0 | 1.6 | 0.00 | 0.00 | 0.00 | 51 | 1014.7 |
| 20260505024506 | 17 | 203 | 0.0 | 1.6 | 0.00 | 0.00 | 0.00 | 51 | 1014.6 |
| 20260505024001 | 17 | 208 | 0.0 | 1.6 | 0.00 | 0.00 | 0.00 | 51 | 1014.7 |
| 20260505023501 | 17 | 217 | 0.0 | 1.6 | 0.00 | 0.00 | 0.00 | 52 | 1014.7 |
| 20260505023001 | 17 | 221 | 0.0 | 1.6 | 0.00 | 0.00 | 0.00 | 52 | 1014.6 |
| 20260505022501 | 17 | 227 | 0.0 | 0.0 | 0.00 | 0.00 | 0.00 | 53 | 1014.6 |
| 20260505022001 | 17 | 233 | 0.0 | 0.0 | 0.00 | 0.00 | 0.00 | 52 | 1014.6 |
| 20260505021504 | 17 | 244 | 0.0 | 0.0 | 0.00 | 0.00 | 0.00 | 53 | 1014.5 |
| 20260505021100 | 17 | 244 | 0.0 | 0.0 | 0.00 | 0.00 | 0.00 | 53 | 1014.5 |
| 20260505020600 | 17 | 247 | 0.0 | 0.0 | 0.00 | 0.00 | 0.00 | 54 | 1014.5 |
| 20260505015600 | 17 | 247 | 0.0 | 0.0 | 0.00 | 0.00 | 0.00 | 54 | 1014.5 |
| 20260505015100 | 17 | 247 | 0.0 | 0.0 | 0.00 | 0.00 | 0.00 | 53 | 1014.5 |
| 20260505014600 | 17 | 247 | 0.0 | 0.0 | 0.00 | 0.00 | 0.00 | 53 | 1014.4 |
| 20260505014100 | 17 | 247 | 0.0 | 0.0 | 0.00 | 0.00 | 0.00 | 53 | 1014.3 |
| 20260505013602 | 17 | 248 | 0.0 | 0.0 | 0.00 | 0.00 | 0.00 | 52 | 1014.3 |
| 20260505013101 | 17 | 248 | 0.0 | 0.0 | 0.00 | 0.00 | 0.00 | 52 | 1014.2 |
| 20260505012559 | 17 | 252 | 0.0 | 0.0 | 0.00 | 0.00 | 0.00 | 51 | 1014.2 |
| 20260505012102 | 17 | 252 | 0.0 | 0.0 | 0.00 | 0.00 | 0.00 | 51 | 1014.2 |
| 20260505011559 | 18 | 252 | 0.0 | 0.0 | 0.00 | 0.00 | 0.00 | 50 | 1014.2 |
| 20260505011058 | 18 | 252 | 0.0 | 0.0 | 0.00 | 0.00 | 0.00 | 50 | 1014.2 |
| 20260505010558 | 18 | 252 | 0.0 | 0.0 | 0.00 | 0.00 | 0.00 | 50 | 1014.2 |
| 20260505010058 | 18 | 252 | 0.0 | 0.0 | 0.00 | 0.00 | 0.00 | 50 | 1014.2 |
| 20260505005558 | 18 | 252 | 0.0 | 0.0 | 0.00 | 0.00 | 0.00 | 50 | 1014.2 |
| 20260505005058 | 18 | 252 | 0.0 | 0.0 | 0.00 | 0.00 | 0.00 | 50 | 1014.2 |
| 20260505004604 | 18 | 252 | 0.0 | 0.0 | 0.00 | 0.00 | 0.00 | 50 | 1014.1 |
| 20260505004057 | 18 | 253 | 0.0 | 0.0 | 0.00 | 0.00 | 0.00 | 50 | 1014.1 |
| 20260505003557 | 18 | 253 | 0.0 | 0.0 | 0.00 | 0.00 | 0.00 | 50 | 1014.1 |
| 20260505003057 | 18 | 254 | 0.0 | 0.0 | 0.00 | 0.00 | 0.00 | 50 | 1014.0 |
| 20260505002557 | 18 | 254 | 0.0 | 0.0 | 0.00 | 0.00 | 0.00 | 50 | 1014.0 |